QPF
0.01 0.02 0.02 0.03 0.05 0.10 0.08 0.05 0.04 0.03 0.03 0.03 0.03 0.01 0.01 0.01 0.01 0.02 0.03 0.05 0.07 0.07 0.08 0.09 0.05 0.04 0.03 0.03 0.03 0.04 0.06 0.07 0.07 0.08 0.09 0.10 0.10 0.09 0.09 0.09 0.08 0.08 0.09
0.02 0.02 0.03 0.03 0.05 0.05 0.06 0.05 0.04 0.05 0.04 0.03 0.02 0.02 0.01 0.01 0.01 0.02 0.05 0.05 0.07 0.08 0.07 0.07 0.05 0.03 0.02 0.03 0.02 0.02 0.02 0.02 0.03 0.04 0.05 0.06 0.07 0.06 0.06 0.06 0.05 0.06 0.08
0.04 0.03 0.03 0.03 0.05 0.07 0.05 0.04 0.03 0.05 0.04 0.04 0.03 0.02 0.02 0.02 0.01 0.02 0.03 0.04 0.04 0.05 0.04 0.05 0.05 0.04 0.04 0.03 0.01 0.01 0.01 0.01 0.01 0.02 0.02 0.02 0.02 0.03 0.04 0.04 0.04 0.05 0.07
0.06 0.04 0.05 0.07 0.06 0.08 0.06 0.04 0.05 0.06 0.04 0.05 0.06 0.04 0.03 0.02 0.02 0.01 0.02 0.03 0.03 0.03 0.03 0.04 0.04 0.04 0.03 0.03 0.02 0.01 0.01 0.01 0.02 0.02 0.03 0.02 0.02 0.02 0.02 0.04 0.04 0.04 0.04
0.06 0.08 0.08 0.05 0.03 0.06 0.05 0.04 0.06 0.07 0.08 0.09 0.09 0.10 0.09 0.06 0.04 0.02 0.02 0.02 0.02 0.02 0.02 0.03 0.04 0.04 0.02 0.03 0.03 0.02 0.01 0.01 0.02 0.03 0.04 0.04 0.05 0.04 0.02 0.02 0.03 0.02 0.02
0.06 0.07 0.06 0.04 0.03 0.03 0.02 0.02 0.03 0.06 0.06 0.07 0.08 0.10 0.12 0.12 0.07 0.04 0.04 0.03 0.02 0.02 0.02 0.03 0.03 0.03 0.02 0.02 0.02 0.02 0.02 0.02 0.02 0.03 0.03 0.03 0.05 0.04 0.02 0.01 0.02 0.02 0.01
0.03 0.03 0.04 0.04 0.04 0.03 0.02 0.02 0.01 0.02 0.04 0.04 0.06 0.11 0.13 0.11 0.08 0.06 0.06 0.04 0.03 0.02 0.02 0.02 0.02 0.02 0.03 0.02 0.02 0.02 0.02 0.02 0.03 0.03 0.03 0.02 0.02 0.03 0.03 0.03 0.03 0.02 0.02
0.02 0.02 0.02 0.03 0.03 0.03 0.02 0.02 0.02 0.02 0.04 0.06 0.04 0.06 0.10 0.11 0.08 0.06 0.06 0.05 0.04 0.03 0.02 0.01 0.01 0.02 0.02 0.02 0.03 0.03 0.02 0.02 0.03 0.03 0.03 0.02 0.03 0.04 0.04 0.04 0.04 0.03 0.02
0.02 0.01 0.02 0.03 0.02 0.02 0.02 0.02 0.03 0.03 0.06 0.10 0.06 0.06 0.10 0.10 0.07 0.05 0.05 0.05 0.05 0.04 0.03 0.02 0.02 0.03 0.03 0.04 0.04 0.03 0.03 0.03 0.04 0.05 0.04 0.03 0.03 0.03 0.03 0.03 0.04 0.04 0.02
0.01 0.01 0.01 0.02 0.02 0.02 0.02 0.03 0.04 0.04 0.04 0.06 0.07 0.09 0.06 0.05 0.06 0.06 0.06 0.05 0.04 0.04 0.04 0.03 0.03 0.04 0.05 0.05 0.06 0.06 0.06 0.06 0.05 0.05 0.06 0.06 0.05 0.04 0.04 0.04 0.04 0.05 0.05
0.01 0.01 0.00 0.01 0.03 0.05 0.06 0.05 0.04 0.04 0.05 0.06 0.08 0.08 0.07 0.07 0.07 0.06 0.06 0.05 0.05 0.05 0.05 0.04 0.05 0.07 0.07 0.07 0.07 0.06 0.06 0.05 0.04 0.04 0.05 0.05 0.04 0.03 0.03 0.04 0.05 0.05 0.06
0.01 0.01 0.01 0.01 0.03 0.06 0.06 0.06 0.05 0.05 0.06 0.06 0.06 0.09 0.09 0.09 0.08 0.07 0.06 0.05 0.05 0.05 0.06 0.07 0.07 0.07 0.07 0.08 0.07 0.05 0.04 0.04 0.03 0.02 0.02 0.03 0.03 0.03 0.03 0.03 0.04 0.04 0.04
0.01 0.01 0.01 0.02 0.02 0.03 0.03 0.03 0.04 0.04 0.05 0.05 0.06 0.08 0.08 0.10 0.10 0.08 0.06 0.04 0.03 0.03 0.04 0.04 0.05 0.05 0.06 0.06 0.06 0.06 0.04 0.03 0.02 0.01 0.01 0.01 0.02 0.02 0.02 0.02 0.02 0.02 0.02
0.01 0.01 0.02 0.02 0.02 0.02 0.03 0.02 0.02 0.03 0.03 0.04 0.05 0.06 0.06 0.07 0.07 0.06 0.04 0.05 0.05 0.04 0.04 0.03 0.02 0.03 0.03 0.05 0.06 0.07 0.05 0.03 0.02 0.01 0.01 0.01 0.01 0.01 0.01 0.01 0.01 0.02 0.02
0.02 0.02 0.02 0.02 0.02 0.02 0.02 0.02 0.02 0.02 0.02 0.03 0.04 0.05 0.06 0.06 0.04 0.03 0.03 0.04 0.04 0.04 0.03 0.03 0.03 0.02 0.03 0.03 0.04 0.05 0.06 0.05 0.04 0.02 0.02 0.02 0.02 0.01 0.01 0.01 0.01 0.02 0.02
0.02 0.01 0.01 0.01 0.02 0.02 0.01 0.01 0.01 0.02 0.03 0.04 0.04 0.04 0.05 0.05 0.04 0.04 0.03 0.03 0.03 0.03 0.03 0.03 0.03 0.02 0.01 0.02 0.03 0.03 0.03 0.04 0.05 0.05 0.04 0.02 0.02 0.02 0.02 0.02 0.02 0.01 0.01
0.02 0.02 0.01 0.01 0.02 0.01 0.01 0.01 0.02 0.02 0.03 0.04 0.06 0.06 0.07 0.08 0.07 0.07 0.05 0.04 0.04 0.03 0.03 0.03 0.03 0.02 0.01 0.02 0.03 0.04 0.04 0.04 0.05 0.07 0.06 0.05 0.03 0.04 0.04 0.04 0.04 0.02 0.02
0.02 0.02 0.02 0.02 0.02 0.02 0.02 0.02 0.03 0.03 0.05 0.05 0.06 0.07 0.06 0.07 0.07 0.07 0.05 0.05 0.05 0.04 0.03 0.03 0.04 0.03 0.02 0.03 0.05 0.06 0.07 0.07 0.06 0.06 0.06 0.05 0.04 0.03 0.06 0.07 0.07 0.04 0.03
0.03 0.03 0.03 0.04 0.03 0.03 0.03 0.02 0.02 0.03 0.03 0.03 0.03 0.03 0.03 0.04 0.04 0.04 0.06 0.06 0.06 0.06 0.06 0.05 0.05 0.04 0.03 0.04 0.06 0.08 0.07 0.06 0.05 0.05 0.04 0.03 0.02 0.03 0.08 0.11 0.09 0.07 0.09
0.03 0.03 0.05 0.08 0.07 0.04 0.03 0.02 0.02 0.01 0.02 0.02 0.02 0.02 0.02 0.03 0.03 0.03 0.04 0.07 0.06 0.05 0.06 0.06 0.05 0.04 0.03 0.03 0.04 0.07 0.07 0.05 0.03 0.02 0.02 0.02 0.02 0.02 0.05 0.09 0.08 0.07 0.09
0.01 0.01 0.01 0.02 0.03 0.02 0.01 0.01 0.01 0.01 0.02 0.02 0.02 0.02 0.03 0.03 0.03 0.03 0.04 0.04 0.04 0.05 0.05 0.04 0.03 0.03 0.03 0.04 0.04 0.05 0.05 0.04 0.02 0.01 0.01 0.02 0.02 0.02 0.03 0.05 0.05 0.06 0.06
0.01 0.01 0.01 0.01 0.01 0.01 0.01 0.01 0.01 0.01 0.01 0.01 0.02 0.02 0.02 0.02 0.02 0.02 0.03 0.03 0.03 0.04 0.05 0.04 0.04 0.04 0.04 0.04 0.03 0.03 0.03 0.03 0.03 0.02 0.01 0.01 0.02 0.03 0.04 0.03 0.03 0.03 0.04
0.02 0.02 0.01 0.01 0.01 0.01 0.01 0.01 0.01 0.01 0.01 0.01 0.02 0.02 0.02 0.03 0.03 0.03 0.03 0.04 0.05 0.05 0.05 0.06 0.05 0.04 0.04 0.03 0.03 0.02 0.03 0.04 0.04 0.02 0.02 0.03 0.03 0.03 0.03 0.03 0.03 0.04 0.04
0.01 0.01 0.01 0.01 0.00 0.01 0.01 0.01 0.02 0.02 0.02 0.02 0.02 0.03 0.03 0.04 0.05 0.05 0.06 0.06 0.07 0.07 0.06 0.04 0.04 0.03 0.03 0.03 0.03 0.02 0.03 0.04 0.04 0.04 0.04 0.04 0.05 0.04 0.03 0.03 0.03 0.04 0.04
0.00 0.00 0.00 0.00 0.01 0.01 0.01 0.01 0.02 0.03 0.03 0.03 0.03 0.03 0.04 0.05 0.06 0.07 0.07 0.06 0.06 0.07 0.08 0.08 0.08 0.07 0.04 0.03 0.03 0.02 0.01 0.02 0.02 0.03 0.04 0.04 0.04 0.04 0.04 0.04 0.04 0.05 0.05
0.01 0.01 0.01 0.01 0.01 0.01 0.01 0.03 0.05 0.06 0.05 0.05 0.04 0.04 0.04 0.04 0.04 0.04 0.03 0.02 0.02 0.02 0.02 0.03 0.03 0.02 0.01 0.01 0.01 0.01 0.01 0.02 0.03 0.03 0.03 0.03 0.03 0.03 0.03 0.03 0.03 0.03 0.03
MSLP
1012.80 1012.95 1013.08 1013.16 1013.21 1013.24 1013.28 1013.36 1013.50 1013.71 1013.97 1014.24 1014.50 1014.70 1014.82 1014.85 1014.81 1014.72 1014.63 1014.56 1014.54 1014.60 1014.71 1014.87 1015.05 1015.21 1015.34 1015.42 1015.45 1015.46 1015.45 1015.44 1015.44 1015.44 1015.43 1015.40 1015.34 1015.22 1015.06 1014.88 1014.69 1014.53 1014.44
1012.73 1012.93 1013.10 1013.19 1013.22 1013.21 1013.20 1013.22 1013.33 1013.53 1013.81 1014.13 1014.44 1014.70 1014.87 1014.93 1014.88 1014.76 1014.62 1014.51 1014.45 1014.47 1014.58 1014.75 1014.96 1015.15 1015.31 1015.42 1015.48 1015.51 1015.52 1015.53 1015.57 1015.62 1015.67 1015.71 1015.70 1015.62 1015.48 1015.27 1015.04 1014.80 1014.62
1012.58 1012.83 1013.04 1013.16 1013.19 1013.16 1013.10 1013.09 1013.16 1013.35 1013.65 1014.01 1014.38 1014.70 1014.91 1015.00 1014.95 1014.82 1014.64 1014.48 1014.38 1014.38 1014.47 1014.65 1014.86 1015.08 1015.26 1015.39 1015.47 1015.51 1015.53 1015.57 1015.64 1015.74 1015.86 1015.96 1016.02 1016.00 1015.88 1015.68 1015.42 1015.13 1014.86
1012.31 1012.62 1012.89 1013.05 1013.10 1013.05 1012.98 1012.93 1012.99 1013.17 1013.48 1013.87 1014.28 1014.65 1014.91 1015.02 1014.99 1014.85 1014.64 1014.45 1014.32 1014.28 1014.36 1014.52 1014.75 1014.97 1015.17 1015.31 1015.40 1015.45 1015.48 1015.54 1015.63 1015.77 1015.94 1016.11 1016.23 1016.27 1016.20 1016.02 1015.75 1015.42 1015.10
1011.93 1012.30 1012.63 1012.84 1012.92 1012.89 1012.81 1012.75 1012.79 1012.96 1013.28 1013.69 1014.13 1014.54 1014.83 1014.97 1014.95 1014.80 1014.58 1014.36 1014.20 1014.14 1014.20 1014.36 1014.58 1014.82 1015.03 1015.18 1015.27 1015.32 1015.35 1015.41 1015.52 1015.68 1015.89 1016.10 1016.28 1016.38 1016.36 1016.22 1015.96 1015.63 1015.27
1011.47 1011.88 1012.27 1012.54 1012.67 1012.66 1012.59 1012.52 1012.55 1012.72 1013.03 1013.45 1013.91 1014.33 1014.64 1014.80 1014.79 1014.64 1014.41 1014.17 1014.00 1013.92 1013.97 1014.13 1014.35 1014.59 1014.81 1014.96 1015.05 1015.09 1015.12 1015.17 1015.28 1015.45 1015.68 1015.92 1016.15 1016.30 1016.33 1016.24 1016.02 1015.70 1015.33
1010.96 1011.41 1011.85 1012.17 1012.34 1012.37 1012.31 1012.25 1012.28 1012.43 1012.73 1013.14 1013.60 1014.02 1014.34 1014.51 1014.50 1014.35 1014.12 1013.88 1013.70 1013.62 1013.66 1013.82 1014.04 1014.28 1014.50 1014.65 1014.74 1014.77 1014.78 1014.82 1014.91 1015.07 1015.30 1015.57 1015.82 1016.02 1016.11 1016.07 1015.90 1015.63 1015.28
1010.46 1010.94 1011.41 1011.78 1011.98 1012.04 1012.00 1011.94 1011.96 1012.11 1012.39 1012.78 1013.23 1013.64 1013.96 1014.12 1014.11 1013.97 1013.75 1013.51 1013.32 1013.24 1013.28 1013.43 1013.65 1013.89 1014.10 1014.25 1014.32 1014.34 1014.34 1014.35 1014.43 1014.58 1014.80 1015.08 1015.36 1015.60 1015.74 1015.77 1015.66 1015.44 1015.14
1010.03 1010.52 1011.01 1011.40 1011.62 1011.70 1011.67 1011.62 1011.64 1011.77 1012.04 1012.41 1012.83 1013.22 1013.52 1013.68 1013.68 1013.54 1013.32 1013.09 1012.91 1012.83 1012.87 1013.01 1013.22 1013.45 1013.64 1013.78 1013.84 1013.84 1013.82 1013.82 1013.88 1014.01 1014.23 1014.52 1014.82 1015.10 1015.30 1015.39 1015.35 1015.19 1014.95
1009.70 1010.19 1010.68 1011.07 1011.30 1011.38 1011.36 1011.32 1011.34 1011.46 1011.70 1012.05 1012.45 1012.82 1013.10 1013.26 1013.25 1013.13 1012.92 1012.70 1012.53 1012.45 1012.48 1012.61 1012.79 1013.00 1013.18 1013.29 1013.34 1013.32 1013.29 1013.28 1013.32 1013.45 1013.67 1013.97 1014.29 1014.61 1014.85 1015.00 1015.03 1014.94 1014.75
1009.49 1009.97 1010.44 1010.81 1011.03 1011.11 1011.10 1011.06 1011.08 1011.20 1011.43 1011.76 1012.13 1012.49 1012.76 1012.90 1012.90 1012.79 1012.60 1012.40 1012.24 1012.15 1012.17 1012.28 1012.44 1012.61 1012.76 1012.85 1012.87 1012.85 1012.81 1012.80 1012.85 1012.98 1013.21 1013.52 1013.87 1014.21 1014.49 1014.69 1014.77 1014.73 1014.58
1009.37 1009.82 1010.26 1010.60 1010.80 1010.88 1010.87 1010.85 1010.88 1011.01 1011.24 1011.55 1011.91 1012.24 1012.50 1012.64 1012.65 1012.55 1012.39 1012.20 1012.05 1011.97 1011.98 1012.06 1012.19 1012.33 1012.45 1012.51 1012.52 1012.50 1012.46 1012.46 1012.52 1012.67 1012.91 1013.23 1013.60 1013.95 1014.26 1014.48 1014.59 1014.57 1014.45
1009.28 1009.70 1010.10 1010.41 1010.59 1010.66 1010.67 1010.67 1010.73 1010.87 1011.11 1011.42 1011.76 1012.08 1012.33 1012.47 1012.49 1012.41 1012.27 1012.12 1011.99 1011.92 1011.92 1011.98 1012.09 1012.20 1012.29 1012.33 1012.33 1012.31 1012.28 1012.30 1012.38 1012.55 1012.81 1013.14 1013.50 1013.86 1014.16 1014.38 1014.48 1014.46 1014.34
1009.14 1009.54 1009.90 1010.17 1010.33 1010.41 1010.45 1010.49 1010.58 1010.75 1011.00 1011.32 1011.66 1011.97 1012.21 1012.35 1012.38 1012.33 1012.22 1012.10 1012.00 1011.96 1011.97 1012.03 1012.12 1012.21 1012.28 1012.32 1012.32 1012.30 1012.30 1012.34 1012.44 1012.63 1012.90 1013.23 1013.57 1013.91 1014.18 1014.36 1014.42 1014.37 1014.21
1008.91 1009.26 1009.58 1009.82 1009.98 1010.08 1010.16 1010.25 1010.39 1010.61 1010.89 1011.22 1011.55 1011.85 1012.08 1012.23 1012.28 1012.25 1012.19 1012.11 1012.06 1012.05 1012.09 1012.16 1012.26 1012.35 1012.42 1012.46 1012.47 1012.47 1012.49 1012.56 1012.68 1012.88 1013.15 1013.45 1013.76 1014.05 1014.26 1014.37 1014.37 1014.26 1014.05
1008.51 1008.82 1009.10 1009.33 1009.50 1009.64 1009.77 1009.93 1010.14 1010.41 1010.72 1011.07 1011.40 1011.70 1011.92 1012.07 1012.14 1012.15 1012.13 1012.10 1012.11 1012.15 1012.23 1012.34 1012.46 1012.57 1012.65 1012.71 1012.74 1012.77 1012.81 1012.90 1013.04 1013.24 1013.49 1013.76 1014.01 1014.23 1014.35 1014.38 1014.30 1014.11 1013.84
1007.94 1008.20 1008.45 1008.67 1008.87 1009.06 1009.26 1009.51 1009.79 1010.13 1010.49 1010.85 1011.20 1011.49 1011.71 1011.86 1011.95 1011.99 1012.02 1012.06 1012.13 1012.23 1012.36 1012.52 1012.67 1012.81 1012.92 1013.01 1013.07 1013.12 1013.19 1013.30 1013.45 1013.64 1013.85 1014.07 1014.26 1014.39 1014.43 1014.37 1014.19 1013.93 1013.59
1007.23 1007.44 1007.66 1007.88 1008.11 1008.37 1008.66 1009.00 1009.38 1009.78 1010.19 1010.59 1010.94 1011.24 1011.46 1011.62 1011.73 1011.82 1011.89 1011.99 1012.12 1012.28 1012.47 1012.67 1012.87 1013.04 1013.19 1013.30 1013.39 1013.47 1013.56 1013.68 1013.83 1014.00 1014.19 1014.35 1014.47 1014.52 1014.47 1014.32 1014.07 1013.73 1013.34
1006.45 1006.60 1006.80 1007.03 1007.31 1007.64 1008.02 1008.45 1008.92 1009.40 1009.87 1010.30 1010.68 1010.99 1011.23 1011.40 1011.54 1011.66 1011.78 1011.93 1012.11 1012.33 1012.56 1012.80 1013.03 1013.24 1013.41 1013.54 1013.66 1013.76 1013.87 1014.00 1014.14 1014.30 1014.45 1014.56 1014.63 1014.61 1014.49 1014.27 1013.96 1013.58 1013.15
1005.71 1005.80 1005.97 1006.21 1006.54 1006.94 1007.41 1007.93 1008.48 1009.04 1009.57 1010.05 1010.46 1010.79 1011.05 1011.25 1011.42 1011.58 1011.74 1011.93 1012.15 1012.40 1012.66 1012.92 1013.17 1013.38 1013.56 1013.71 1013.84 1013.96 1014.08 1014.21 1014.35 1014.49 1014.62 1014.71 1014.73 1014.67 1014.50 1014.25 1013.91 1013.51 1013.08
1005.09 1005.13 1005.28 1005.53 1005.89 1006.35 1006.89 1007.49 1008.12 1008.74 1009.33 1009.85 1010.30 1010.67 1010.96 1011.20 1011.40 1011.59 1011.79 1012.01 1012.25 1012.51 1012.77 1013.03 1013.27 1013.48 1013.65 1013.80 1013.93 1014.05 1014.18 1014.32 1014.46 1014.60 1014.72 1014.79 1014.80 1014.72 1014.55 1014.29 1013.95 1013.56 1013.15
1004.68 1004.68 1004.80 1005.05 1005.43 1005.93 1006.52 1007.17 1007.85 1008.52 1009.15 1009.72 1010.21 1010.62 1010.95 1011.23 1011.46 1011.69 1011.91 1012.14 1012.38 1012.64 1012.89 1013.12 1013.33 1013.51 1013.67 1013.80 1013.92 1014.04 1014.18 1014.32 1014.48 1014.63 1014.75 1014.84 1014.85 1014.79 1014.64 1014.40 1014.10 1013.75 1013.37
1004.53 1004.49 1004.58 1004.82 1005.20 1005.71 1006.31 1006.98 1007.68 1008.37 1009.03 1009.62 1010.14 1010.59 1010.96 1011.27 1011.55 1011.80 1012.04 1012.27 1012.51 1012.74 1012.96 1013.15 1013.32 1013.47 1013.59 1013.70 1013.82 1013.94 1014.08 1014.24 1014.41 1014.59 1014.74 1014.85 1014.90 1014.88 1014.77 1014.59 1014.34 1014.04 1013.72
1004.63 1004.55 1004.62 1004.84 1005.19 1005.67 1006.24 1006.89 1007.57 1008.24 1008.89 1009.49 1010.02 1010.49 1010.89 1011.24 1011.54 1011.82 1012.07 1012.31 1012.53 1012.73 1012.92 1013.07 1013.20 1013.31 1013.41 1013.50 1013.61 1013.74 1013.89 1014.08 1014.28 1014.48 1014.67 1014.83 1014.93 1014.96 1014.92 1014.80 1014.62 1014.39 1014.13
1004.93 1004.83 1004.87 1005.04 1005.34 1005.75 1006.26 1006.84 1007.45 1008.07 1008.67 1009.23 1009.75 1010.22 1010.63 1011.00 1011.33 1011.62 1011.89 1012.13 1012.34 1012.53 1012.69 1012.81 1012.92 1013.00 1013.09 1013.18 1013.29 1013.43 1013.61 1013.82 1014.06 1014.31 1014.54 1014.75 1014.91 1015.01 1015.04 1015.00 1014.89 1014.74 1014.55
1005.35 1005.24 1005.24 1005.35 1005.57 1005.89 1006.29 1006.75 1007.25 1007.76 1008.27 1008.77 1009.24 1009.68 1010.08 1010.46 1010.80 1011.11 1011.39 1011.64 1011.86 1012.04 1012.20 1012.32 1012.42 1012.51 1012.60 1012.71 1012.84 1013.01 1013.22 1013.47 1013.75 1014.03 1014.32 1014.58 1014.80 1014.96 1015.07 1015.11 1015.09 1015.01 1014.89
Thickness
5808 5809 5808 5806 5803 5800 5797 5795 5793 5790 5787 5784 5780 5776 5774 5774 5773 5773 5771 5770 5768 5766 5763 5761 5759 5757 5755 5754 5753 5751 5749 5747 5747 5744 5741 5741 5743 5743 5743 5742 5742 5742 5742
5804 5805 5806 5805 5802 5800 5798 5796 5794 5791 5789 5787 5783 5779 5776 5774 5773 5771 5770 5768 5766 5764 5762 5758 5756 5755 5752 5751 5749 5748 5744 5743 5742 5739 5734 5731 5733 5736 5738 5738 5738 5738 5738
5804 5804 5804 5803 5802 5800 5800 5799 5795 5792 5789 5787 5782 5778 5774 5772 5769 5767 5766 5766 5764 5762 5759 5757 5755 5752 5750 5748 5746 5744 5741 5738 5737 5737 5732 5726 5723 5726 5731 5732 5733 5734 5734
5807 5806 5805 5804 5803 5803 5803 5800 5796 5792 5789 5786 5782 5777 5772 5767 5766 5764 5763 5763 5761 5759 5757 5755 5752 5750 5748 5746 5744 5742 5740 5737 5733 5732 5731 5729 5727 5722 5721 5725 5728 5729 5730
5808 5808 5809 5808 5807 5805 5802 5799 5796 5792 5789 5786 5783 5778 5773 5768 5765 5763 5760 5758 5757 5756 5754 5751 5749 5747 5745 5743 5741 5739 5737 5735 5731 5729 5727 5725 5723 5722 5719 5717 5720 5723 5725
5809 5809 5810 5808 5805 5804 5801 5798 5794 5790 5788 5784 5782 5777 5772 5767 5762 5759 5756 5754 5753 5751 5750 5748 5746 5743 5741 5739 5737 5735 5733 5731 5729 5726 5724 5721 5719 5717 5716 5714 5714 5715 5719
5807 5806 5805 5804 5802 5800 5799 5797 5793 5789 5786 5782 5779 5775 5771 5766 5762 5758 5755 5751 5749 5747 5745 5745 5742 5740 5738 5736 5734 5731 5729 5727 5724 5722 5721 5719 5718 5716 5714 5712 5710 5710 5713
5806 5805 5805 5803 5801 5799 5797 5795 5791 5787 5784 5781 5777 5774 5770 5767 5763 5759 5755 5751 5747 5744 5743 5741 5739 5736 5734 5732 5729 5726 5724 5722 5720 5719 5717 5715 5714 5713 5712 5709 5706 5704 5705
5804 5804 5803 5802 5799 5797 5795 5793 5788 5784 5782 5779 5775 5771 5768 5765 5761 5757 5753 5749 5745 5743 5740 5737 5734 5732 5729 5727 5724 5721 5719 5717 5715 5714 5712 5711 5710 5709 5708 5706 5704 5700 5697
5800 5801 5800 5799 5797 5795 5793 5790 5786 5782 5779 5776 5773 5769 5765 5762 5757 5753 5748 5745 5742 5739 5736 5733 5730 5727 5725 5722 5719 5716 5714 5712 5710 5708 5706 5705 5704 5704 5703 5701 5700 5698 5696
5796 5796 5797 5796 5794 5792 5789 5786 5783 5779 5775 5772 5769 5765 5761 5757 5753 5749 5745 5741 5738 5735 5731 5728 5725 5722 5719 5716 5713 5710 5708 5706 5703 5702 5700 5698 5698 5697 5696 5695 5693 5691 5690
5794 5793 5792 5790 5788 5785 5783 5780 5778 5774 5771 5768 5764 5760 5756 5752 5748 5744 5740 5736 5733 5730 5726 5723 5720 5718 5715 5712 5708 5705 5703 5700 5697 5695 5693 5691 5691 5690 5689 5687 5686 5684 5683
5789 5788 5786 5784 5782 5780 5778 5776 5773 5770 5767 5763 5758 5754 5750 5747 5743 5739 5735 5732 5728 5725 5721 5719 5715 5712 5710 5707 5703 5701 5698 5694 5691 5689 5687 5685 5684 5682 5681 5680 5678 5677 5677
5782 5781 5779 5777 5776 5775 5773 5771 5769 5767 5763 5759 5754 5749 5745 5741 5738 5734 5730 5727 5724 5719 5716 5713 5710 5707 5704 5701 5698 5695 5692 5689 5686 5684 5682 5680 5678 5676 5674 5673 5671 5670 5668
5776 5774 5772 5771 5770 5769 5767 5765 5763 5760 5757 5753 5748 5744 5741 5737 5733 5729 5725 5722 5719 5715 5712 5708 5705 5702 5699 5697 5693 5689 5686 5683 5680 5678 5676 5674 5673 5671 5669 5667 5665 5663 5661
5771 5770 5768 5767 5765 5763 5762 5760 5757 5754 5751 5748 5744 5740 5736 5731 5727 5723 5719 5716 5713 5709 5706 5703 5700 5697 5695 5693 5689 5685 5680 5677 5673 5671 5669 5667 5665 5664 5662 5661 5660 5658 5655
5765 5763 5763 5761 5759 5757 5756 5753 5751 5749 5746 5742 5738 5734 5730 5726 5722 5718 5714 5710 5707 5704 5700 5697 5694 5691 5689 5687 5683 5679 5675 5671 5667 5664 5662 5660 5659 5656 5654 5653 5652 5650 5649
5758 5757 5756 5754 5753 5751 5749 5747 5744 5742 5739 5735 5731 5729 5725 5720 5715 5711 5707 5704 5701 5698 5694 5691 5688 5685 5683 5681 5677 5673 5669 5665 5661 5658 5655 5653 5651 5650 5647 5645 5643 5641 5640
5751 5750 5750 5747 5745 5744 5742 5739 5736 5734 5731 5727 5724 5722 5717 5713 5708 5704 5700 5698 5695 5691 5688 5685 5682 5679 5677 5675 5672 5667 5662 5658 5655 5653 5650 5648 5645 5644 5641 5638 5635 5634 5633
5744 5742 5741 5739 5736 5734 5734 5730 5727 5724 5722 5720 5717 5714 5710 5706 5702 5698 5695 5691 5688 5685 5682 5678 5676 5674 5671 5668 5665 5661 5657 5652 5649 5647 5645 5642 5640 5638 5635 5631 5629 5627 5626
5736 5735 5732 5729 5727 5726 5724 5720 5717 5715 5714 5712 5709 5706 5702 5699 5695 5691 5688 5684 5681 5677 5674 5671 5669 5667 5665 5662 5659 5655 5651 5647 5644 5641 5639 5637 5634 5631 5628 5626 5624 5622 5621
5726 5724 5722 5719 5719 5718 5714 5710 5708 5708 5706 5703 5700 5697 5694 5691 5689 5683 5680 5676 5672 5669 5666 5663 5661 5660 5658 5655 5652 5649 5646 5643 5638 5636 5633 5630 5628 5625 5622 5620 5619 5617 5614
5715 5714 5712 5711 5709 5707 5704 5701 5700 5698 5696 5693 5691 5688 5685 5682 5679 5675 5672 5668 5665 5662 5659 5656 5654 5652 5650 5648 5645 5642 5639 5636 5633 5630 5627 5625 5622 5619 5617 5615 5613 5611 5608
5703 5703 5702 5700 5698 5696 5694 5693 5692 5690 5686 5683 5681 5679 5677 5674 5671 5667 5665 5662 5659 5656 5653 5650 5647 5645 5643 5641 5639 5636 5632 5629 5626 5623 5621 5618 5616 5613 5611 5609 5607 5604 5602
5694 5693 5692 5690 5689 5687 5685 5684 5682 5681 5677 5674 5672 5670 5668 5665 5662 5660 5657 5656 5654 5651 5648 5645 5643 5639 5637 5637 5634 5630 5627 5624 5620 5616 5614 5611 5609 5606 5604 5602 5600 5598 5597
5684 5682 5681 5680 5679 5678 5676 5675 5673 5671 5668 5665 5663 5661 5657 5655 5653 5651 5649 5647 5646 5644 5642 5640 5637 5636 5634 5631 5628 5625 5622 5618 5614 5610 5607 5605 5603 5600 5598 5596 5595 5593 5592